Location: Arthez
(43.0833°N, 0.2500°W)
Time: 20:49:51
(UTC+00:00)

SL-16 R/B - Pass Details

Date: 23 October 2021
Orbit: 842 x 846 km, 71.0° (Epoch: 06 December)

Event Time Altitude Azimuth Distance (km) Brightness Sun altitude
Rises 19:49:33 0° 247° (WSW) 3,393 6.1 -30.5°
Reaches altitude 10° 19:52:37 10° 263° (W) 2,463 5.4 -31.0°
Maximum altitude 19:56:47 21° 311° (NW) 1,827 4.5 -31.8°
Drops below altitude 10° 20:00:59 10° 359° (N) 2,474 4.8 -32.5°
Enters shadow 20:03:23 - 13° (NNE) 3,182 5.2 -32.9°
